Regional Weather Roundup
Issued by NWS

Home | Current Version | Previous Version | Text Only | Print | Product List | Glossary Off
Versions: 1 2 3 4 5 6 7 8 9 10 11 12 13 14 15 16 17 18 19 20 21 22 23 24 25 26 27 28 29 30 31 32 33 34 35 36 37 38 39 40 41 42 43 44 45 46 47 48 49 50

000
ASUS45 KTFX 310404
RWRMT
MONTANA HOURLY WEATHER ROUNDUP
NATIONAL WEATHER SERVICE GREAT FALLS MT
1004 PM MDT THU OCT 30 2014

NOTE: "FAIR" INDICATES FEW OR NO CLOUDS BELOW 12000 FEET WITH NO
SIGNIFICANT WEATHER AND/OR OBSTRUCTIONS TO VISIBILITY.

* THESE STATIONS ARE NOT UNDER NWS QUALITY CONTROL. THEY DO NOT
   REPORT WEATHER SUCH AS PRECIPITATION OR FOG.

MTZ001>007-043-310500-
WEST OF THE DIVIDE
CITY           SKY/WX    TMP DP  RH WIND       PRES   REMARKS
KALISPELL      MOCLDY    41  39  93 N3        30.00F
MISSOULA       MOCLDY    43  39  86 CALM      30.02F
BUTTE          MOCLDY    43  30  60 CALM      30.12F
MULLAN PASS    CLOUDY    39  37  93 S10       29.99F WCI  32
* DEER LODGE   MOCLDY    46  32  58 SE3        N/A
* ESSEX        N/A       42  39  89 S8         N/A
* HAMILTON APT MOCLDY    43  39  86 S5         N/A
* LIBBY APT    CLOUDY    45  43  93 N/A        N/A
* LINCOLN      N/A       37  34  89 NW1        N/A
* LOOKOUT PASS N/A       42  40  93 S14        N/A
* POLSON       N/A       40  40 100 N/A        N/A
* RONAN APT    CLOUDY    41  39  93 N/A        N/A
* SEELEY LAKE  N/A       36  35  96 N/A        N/A
* THOMP F APT  CLOUDY    47  26  44 NE5G10     N/A
* YAAK HILL    N/A       45  42  89 E3         N/A
$$

MTZ008-052>055-310500-
SOUTHWEST MONTANA
CITY           SKY/WX    TMP DP  RH WIND       PRES   REMARKS
BOZEMAN        CLOUDY    41  34  76 SW6       30.13F
DILLON         CLOUDY    39  30  70 S5        30.13F WCI  35
W YELLOWSTONE  CLOUDY    30  28  92 CALM      30.25S
* ENNIS APT    CLOUDY    52  28  40 SE9        N/A
* THREE FORKS  CLOUDY    39  39 100 N/A        N/A
* BOULDER HILL N/A       42  24  49 SW11       N/A
* MONIDA PASS  N/A       41  26  55 E4         N/A
* RAYNOLDS PAS N/A       39  27  62 S6         N/A   WCI  35
* WHITEHALL    N/A       41  31  68 E1G6       N/A
* WISE RIVER   N/A       39  30  70 SW3        N/A
$$

MTZ009>010-012-014-046-048-049-054-310500-
EAST SLOPES AND CENTRAL MONTANA
CITY           SKY/WX    TMP DP  RH WIND       PRES   REMARKS
CUT BANK       MOCLDY    37  34  89 SE13      30.05F WCI  29
GREAT FALLS    CLOUDY    45  34  65 S7        30.05F
HELENA         CLOUDY    46  36  68 CALM      30.09F
MALMSTROM AFB  CLOUDY    48  34  59 CALM      30.07F
* DEARBORN     N/A       43  36  76 S2         N/A
* EAST GLACIER N/A       39  32  76 SE4        N/A
* MONARCH      N/A       50  22  33 S15        N/A
* SAINT MARY   N/A       39  31  73 SE3        N/A
* SWEET GRASS  N/A       39  34  82 S26G32     N/A   WCI  28
$$

MTZ011-013-016-021-035-040-045-047-050-051-310500-
NORTH CENTRAL MONTANA
CITY           SKY/WX    TMP DP  RH WIND       PRES   REMARKS
HAVRE          CLOUDY    37  34  89 E21G29    30.14F WCI  26
LEWISTOWN      MOCLDY    46  34  63 E13       30.16F
* N BAR RANCH  CLEAR     41  32  70 SE8       30.24F
* CHESTER      N/A       37  34  89 NE5        N/A   WCI  33
* DENTON       N/A       43  30  60 SE8        N/A
* JUDITH GAP   N/A       39  29  67 SE10       N/A   WCI  32
* LOMA         N/A       42  35  76 E23        N/A
$$

MTZ017>020-022>027-061-062-310500-
NORTHEAST MONTANA
CITY           SKY/WX    TMP DP  RH WIND       PRES   REMARKS
GLASGOW        CLOUDY    36  28  73 SE23      30.37F WCI  24
GLENDIVE       CLOUDY    36  30  79 SE14      30.44S WCI  27
JORDAN         PTCLDY    30  28  92 E12       30.33F WCI  20
SIDNEY         CLOUDY    36  28  73 E13       30.48F WCI  27
WOLF POINT     CLOUDY    37  30  76 SE10G20   30.43S WCI  30
* BEAVER HILL  N/A       33  30  89 E21G30     N/A   WCI  21
* CIRCLE       N/A       35  32  89 E8G16      N/A   WCI  28
* LINDSAY DVD  N/A       33  30  89 SE17       N/A   WCI  22
* NAVAJO       N/A       33  29  85 SE17       N/A   WCI  22
* PLENTYWOOD A N/A       31 N/A N/A N/A        N/A
* POPLAR APT   N/A       37  32  82 N/A        N/A
$$

MTZ028>042-056>058-310500-
SOUTHCENTRAL AND SOUTHEAST MONTANA
CITY           SKY/WX    TMP DP  RH WIND       PRES   REMARKS
BAKER          CLOUDY    34  28  79 SE17G28   30.43R WCI  23
BILLINGS       PTCLDY    43  32  65 N7        30.21F
LIVINGSTON     CLOUDY    46  28  50 SE9       30.19S
MILES CITY     PTCLDY    30  28  92 NE7       30.37R WCI  23
* FORSYTH APT  PTCLDY    36  30  79 E7         N/A   WCI  30
* LAUREL APT   PTCLDY    46  25  44 N6         N/A
* ROUNDUP APT  MOCLDY    43  30  60 NE5        N/A
* ALZADA       N/A       31  29  92 E12        N/A   WCI  22
* HYSHAM       N/A       43  32  65 E9G14      N/A
* LAME DEER    N/A       40  32  73 SE10       N/A   WCI  34
* REED POINT   N/A       42  29  60 N/A        N/A
* ROSCOE HILL  N/A       42  24  49 SW4        N/A
$$

REGIONAL REPORTS...DAKOTAS
CITY           SKY/WX    TMP DP  RH WIND       PRES   REMARKS
WILLISTON      CLOUDY    32  25  75 SE14G22   30.51S WCI  22
DICKINSON      CLOUDY    30  27  89 E15       30.48S WCI  19
BEACH          N/A       32  32 100 SE16G24   30.45F WCI  21
CROSBY         CLEAR     25  23  92 SE8       30.53S WCI  16
TIOGA          FAIR      19  19 100 SE8       30.55R WCI   9
BISMARCK       CLEAR     23  19  85 NE3       30.58R
GRAND FORKS    CLEAR     21  18  88 NW9       30.58R WCI  11
FARGO          CLEAR     28  19  69 N14       30.54R WCI  17
BUFFALO SD     CLEAR     34  28  79 E12       30.39S WCI  25
RAPID CITY     CLOUDY    34  30  85 CALM      30.48R
$$

REGIONAL REPORTS...WYOMING/IDAHO/WASHINGTON
CITY           SKY/WX    TMP DP  RH WIND       PRES   REMARKS
GILLETTE       PTCLDY    37  30  76 S8        30.34S WCI  31
SHERIDAN       PTCLDY    46  27  48 SE7       30.26F
CODY           PTCLDY    41  25  53 S6        30.23F
YELLOWSTONE LA CLOUDY    30  28  92 NW3       30.32F
SALMON         CLOUDY    45  37  74 SE3       30.06S
MULLAN PASS    CLOUDY    39  37  93 S10       29.99S WCI  32
SAND POINT     CLOUDY    46  45  96 NE15G20   29.91F
SPOKANE        CLOUDY    50  45  83 NE10      29.84F

$$




USA.gov is the U.S. government's official web portal to all federal, state and local government web resources and services.